Weather History for KLWM - January, 2014

Change the Weather History Date:

Thursday, January 2, 2014

  Actual Average Record
Temperature  
Mean Temperature 11 °F -  
Max Temperature 21 °F 37 °F 66 °F (2000)
Min Temperature 1 °F 19 °F -6 °F (1957)
Degree Days  
Heating Degree Days 54    
Moisture  
Dew Point 3 °F    
Average Humidity 74    
Maximum Humidity 81    
Minimum Humidity 57    
Precipitation  
Precipitation 0.02 in - - ()
Sea Level Pressure  
Sea Level Pressure 30.20 in    
Wind  
Wind Speed 12 mph (NNE)    
Max Wind Speed 23 mph    
Max Gust Speed 33 mph    
Visibility 2 miles    
Events Snow    
Averages and records for this station are not official NWS values.
T = Trace of Precipitation, MM = Missing Value Source: NWS Daily Summary

Daily Weather History Graph

Daily Weather History Graph

Search for Another Location

Airport or City:

Trip Planner

Search our weather history database for the weather conditions in past years. The results will help you decide how hot, cold, wet, or windy it might be!

Date:

Astronomy

Jan. 02, 2014 Rise Set
Actual Time 7:14 AM EST 4:22 PM EST
Civil Twilight 6:42 AM EST 4:54 PM EST
Nautical Twilight 6:07 AM EST 5:29 PM EST
Astronomical Twilight 5:33 AM EST 6:04 PM EST
Moon 7:51 AM EST (1/2) 6:18 PM EST (1/2)
Length of Visible Light 10h 11m
Length of Day
9h 07m
New Moon, 2% of the Moon is Illuminated
Jan 2
New Moon
Jan 7
First Quarter
Jan 15
Full
Jan 24
Last Quarter
Jan 30
New

Hourly Weather History & Observations

Time (EST) Temp. Windchill Dew Point Humidity Pressure Visibility Wind Dir Wind Speed Gust Speed Precip Events Conditions
12:54 AM 21.0 °F - 8.1 °F 57% 30.38 in 8.0 mi Calm Calm - N/A   Overcast
1:54 AM 19.0 °F 8.2 °F 10.9 °F 71% 30.37 in 3.0 mi NNE 9.2 mph - 0.00 in Snow Light Snow
2:00 AM 19.0 °F 8.2 °F 10.9 °F 71% 30.36 in 1.8 mi NNE 9.2 mph - 0.00 in Snow Light Snow
2:07 AM 19.0 °F 9.0 °F 12.0 °F 74% 30.36 in 2.0 mi NNE 8.1 mph - 0.00 in Snow Light Snow
2:32 AM 19.0 °F 11.1 °F 12.0 °F 74% 30.37 in 1.8 mi NE 5.8 mph - 0.00 in Snow Light Snow
2:46 AM 18.0 °F 7.7 °F 12.9 °F 81% 30.37 in 2.0 mi NNE 8.1 mph - 0.00 in Snow Light Snow
2:54 AM 18.0 °F 8.7 °F 12.9 °F 81% 30.37 in 2.0 mi NNE 6.9 mph - 0.00 in Snow Light Snow
3:54 AM 17.1 °F 8.7 °F 10.9 °F 77% 30.36 in 1.8 mi NNE 5.8 mph - 0.00 in Snow Light Snow
4:54 AM 16.0 °F 4.4 °F 10.0 °F 77% 30.36 in 1.5 mi NNE 9.2 mph - 0.01 in Snow Light Snow
5:34 AM 16.0 °F 5.3 °F 10.9 °F 81% 30.34 in 2.5 mi NNE 8.1 mph - 0.00 in Snow Light Snow
5:42 AM 16.0 °F 3.6 °F 10.9 °F 81% 30.35 in 2.0 mi NNE 10.4 mph - 0.00 in Snow Light Snow
5:54 AM 16.0 °F 5.3 °F 10.0 °F 77% 30.35 in 2.5 mi NNE 8.1 mph - 0.00 in Snow Light Snow
6:06 AM 16.0 °F 4.4 °F 10.9 °F 81% 30.34 in 1.8 mi NNE 9.2 mph - 0.00 in Snow Light Snow
6:54 AM 16.0 °F 2.9 °F 10.9 °F 81% 30.34 in 1.5 mi North 11.5 mph - 0.01 in Snow Light Snow
7:04 AM 16.0 °F 2.9 °F 10.0 °F 77% 30.33 in 2.0 mi NNE 11.5 mph - 0.00 in Snow Light Snow
7:12 AM 16.0 °F 2.9 °F 10.9 °F 81% 30.32 in 1.5 mi NNE 11.5 mph - 0.00 in Snow Light Snow
7:54 AM 16.0 °F 2.3 °F 9.0 °F 74% 30.32 in 1.0 mi NNE 12.7 mph - 0.00 in Snow Light Snow
8:04 AM 15.1 °F -0.1 °F 9.0 °F 77% 30.32 in 2.0 mi NNE 15.0 mph - 0.00 in Snow Light Snow
8:15 AM 15.1 °F -1.1 °F 8.1 °F 74% 30.31 in 4.0 mi NE 17.3 mph - 0.00 in Snow Light Snow
8:45 AM 14.0 °F -1.4 °F 7.0 °F 74% 30.32 in 1.8 mi NNE 15.0 mph 20.7 mph 0.00 in Snow Light Snow
8:54 AM 14.0 °F -2.5 °F 7.0 °F 74% 30.33 in 1.2 mi NNE 17.3 mph - 0.00 in Snow Light Snow
9:05 AM 12.9 °F -3.4 °F 6.1 °F 74% 30.32 in 0.8 mi NNE 16.1 mph 26.5 mph 0.00 in Snow Light Snow
9:19 AM 12.9 °F -3.9 °F 6.1 °F 74% 30.31 in 0.5 mi NNE 17.3 mph 27.6 mph 0.00 in Snow Snow
9:40 AM 12.0 °F -5.1 °F 5.0 °F 73% 30.31 in 0.5 mi NNE 17.3 mph 25.3 mph 0.00 in Snow Snow
9:54 AM 10.9 °F -5.4 °F 5.0 °F 77% 30.32 in 0.2 mi North 15.0 mph - 0.00 in Snow Heavy Snow
10:54 AM 10.0 °F -7.1 °F 3.9 °F 76% 30.28 in 0.5 mi NNE 16.1 mph 21.9 mph 0.00 in Snow Snow
11:12 AM 10.9 °F -5.4 °F 3.0 °F 70% 30.26 in 0.8 mi NNE 15.0 mph - 0.00 in Snow Light Snow
11:29 AM 10.0 °F -8.6 °F 3.0 °F 73% 30.23 in 0.5 mi NNE 19.6 mph - 0.00 in Snow Snow
11:54 AM 10.0 °F -8.1 °F 3.0 °F 73% 30.22 in 0.5 mi NNE 18.4 mph 25.3 mph 0.00 in Snow Snow
12:08 PM 9.0 °F -10.0 °F 1.9 °F 73% 30.19 in 0.8 mi NNE 19.6 mph - 0.00 in Snow Light Snow
12:54 PM 9.0 °F -7.9 °F 1.9 °F 73% 30.18 in 0.8 mi NNE 15.0 mph - 0.00 in Snow Light Snow
1:02 PM 9.0 °F -9.0 °F 1.9 °F 73% 30.17 in 0.5 mi NNE 17.3 mph - 0.00 in Snow Snow
1:54 PM 8.1 °F -9.0 °F 1.0 °F 73% 30.16 in 0.5 mi NNE 15.0 mph 24.2 mph 0.00 in Snow Snow
2:14 PM 8.1 °F -8.4 °F 1.0 °F 73% 30.15 in 0.8 mi NNE 13.8 mph 24.2 mph 0.00 in Snow Light Snow
2:25 PM 7.0 °F -11.6 °F -0.0 °F 73% 30.14 in 0.5 mi NNE 17.3 mph 24.2 mph 0.00 in Snow Snow
2:54 PM 6.1 °F -12.8 °F -0.9 °F 73% 30.12 in 0.8 mi NNE 17.3 mph 27.6 mph 0.00 in Snow Light Snow
3:54 PM 6.1 °F -12.2 °F -0.9 °F 73% 30.11 in 0.8 mi NNE 16.1 mph - 0.00 in Snow Light Snow
4:12 PM 6.1 °F -13.3 °F -0.9 °F 73% 30.08 in 0.5 mi NNE 18.4 mph - 0.00 in Snow Snow
4:54 PM 6.1 °F -12.8 °F -0.9 °F 73% 30.09 in 0.5 mi NNE 17.3 mph 25.3 mph 0.00 in Snow Snow
5:01 PM 5.0 °F -14.7 °F -0.9 °F 76% 30.08 in 1.0 mi North 18.4 mph - 0.00 in Snow Light Snow
5:17 PM 5.0 °F -15.2 °F -2.0 °F 73% 30.08 in 1.2 mi NNE 19.6 mph - 0.00 in Snow Light Snow
5:54 PM 3.9 °F -16.6 °F -2.9 °F 73% 30.08 in 1.8 mi NNE 19.6 mph 26.5 mph 0.00 in Snow Light Snow
6:01 PM 3.9 °F -14.3 °F -2.9 °F 73% 30.07 in 2.0 mi NNE 15.0 mph 26.5 mph 0.00 in Snow Light Snow
6:42 PM 3.0 °F -17.8 °F -4.0 °F 73% 30.06 in 3.0 mi NNE 19.6 mph 26.5 mph 0.00 in Snow Light Snow
6:54 PM 3.0 °F -16.1 °F -4.0 °F 73% 30.06 in 3.0 mi NNE 16.1 mph - 0.00 in Snow Light Snow
7:30 PM 3.0 °F -17.8 °F -5.1 °F 69% 30.03 in 2.5 mi NNE 19.6 mph 26.5 mph 0.00 in Snow Light Snow
7:47 PM 3.0 °F -16.7 °F -4.0 °F 73% 30.03 in 1.5 mi North 17.3 mph 26.5 mph 0.00 in Snow Light Snow
7:54 PM 1.9 °F -16.2 °F -5.1 °F 72% 30.04 in 1.2 mi North 13.8 mph - 0.00 in Snow Light Snow
8:44 PM 1.9 °F -17.5 °F -6.0 °F 69% 30.01 in 2.0 mi North 16.1 mph 25.3 mph 0.00 in Snow Light Snow
8:52 PM 1.4 °F -21.0 °F -5.8 °F 72% 30.01 in 1.8 mi NNE 21.9 mph - 0.00 in Snow Light Snow
8:54 PM 1.0 °F -19.9 °F -6.0 °F 72% 30.01 in 1.5 mi North 18.4 mph 25.3 mph 0.00 in Snow Light Snow
9:24 PM 1.0 °F -21.9 °F -6.0 °F 72% 29.98 in 1.0 mi NNE 23.0 mph 27.6 mph 0.00 in Snow Light Snow
9:54 PM 1.0 °F -21.4 °F -7.1 °F 69% 29.97 in 1.0 mi NNE 21.9 mph 33.4 mph 0.00 in Snow Light Snow
10:33 PM 1.0 °F -20.9 °F -6.0 °F 72% 29.94 in 1.2 mi North 20.7 mph 26.5 mph 0.00 in Snow Light Snow
10:54 PM 1.0 °F -18.0 °F -7.1 °F 69% 29.95 in 1.2 mi North 15.0 mph - 0.00 in Snow Light Snow
11:09 PM 1.0 °F -21.9 °F -7.1 °F 69% 29.92 in 1.0 mi NNE 23.0 mph 27.6 mph 0.00 in Snow Light Snow
11:54 PM 1.0 °F -20.9 °F -7.1 °F 69% 29.92 in 0.8 mi NNE 20.7 mph 29.9 mph 0.00 in Snow Light Snow